Location: Unspecified
(0.0000°N, 0.0000°E)
Time: 18:00:42
(UTC+00:00)

STARLINK 1061 - Pass Details

Date: 23 January 2020
Orbit: 548 x 551 km, 53.0° (Epoch: 17 January)

Event Time Altitude Azimuth Distance (km) Brightness Sun altitude
Exits shadow 03:33:02 11° 98° (E) 1,763 6.9 -37.0°
Drops below altitude 10° 03:33:18 10° 95° (E) 1,813 6.9 -36.9°
Sets 03:36:32 0° 68° (ENE) 2,703 7.7 -36.2°
